timestamp,wind_dir_avg,wind_spd_avg,wind_spd_max_dir,wind_spd_gust,battery_voltage,lat,long
2021-12-23 00:04:01+00:00,91.0,4.45,104.0,9.8,12.57,47.59359,-54.27349
2021-12-23 00:14:01+00:00,106.0,4.44,108.0,9.86,12.57,47.59359,-54.27349
2021-12-23 00:24:01+00:00,95.0,4.45,92.0,9.19,12.57,47.59359,-54.27349
2021-12-23 00:34:01+00:00,94.0,5.66,98.0,9.93,12.57,47.59359,-54.27349
2021-12-23 00:44:01+00:00,91.0,4.38,100.0,9.68,12.57,47.59359,-54.27349
2021-12-23 00:54:01+00:00,95.0,6.57,86.0,10.08,12.57,47.59359,-54.27349
2021-12-23 01:04:01+00:00,100.0,2.86,82.0,9.87,12.57,47.59359,-54.27349
2021-12-23 01:14:01+00:00,103.0,6.9,83.0,10.31,12.57,47.59359,-54.27349
2021-12-23 01:24:01+00:00,96.0,4.83,99.0,9.95,12.57,47.59359,-54.27349
2021-12-23 01:34:01+00:00,99.0,4.91,108.0,11.24,12.57,47.59359,-54.27349
2021-12-23 01:44:01+00:00,98.0,7.33,114.0,10.57,12.57,47.59359,-54.27349
2021-12-23 01:54:01+00:00,99.0,7.92,116.0,10.35,12.57,47.59359,-54.27349
2021-12-23 02:04:01+00:00,98.0,6.51,105.0,10.27,12.57,47.59359,-54.27349
2021-12-23 02:14:01+00:00,100.0,7.88,105.0,10.41,12.49,47.59359,-54.27349
2021-12-23 02:24:01+00:00,97.0,5.75,107.0,10.0,12.49,47.59359,-54.27349
2021-12-23 02:34:01+00:00,96.0,6.33,100.0,10.3,12.49,47.59359,-54.27349
2021-12-23 02:44:01+00:00,100.0,8.69,111.0,11.33,12.49,47.59359,-54.27349
2021-12-23 02:54:01+00:00,80.0,6.28,68.0,10.71,12.49,47.59359,-54.27349
2021-12-23 03:04:01+00:00,102.0,6.89,106.0,10.94,12.49,47.59359,-54.27349
2021-12-23 03:14:01+00:00,87.0,4.94,96.0,10.68,12.49,47.59359,-54.27349
2021-12-23 03:24:01+00:00,94.0,7.9,97.0,13.45,12.49,47.59359,-54.27349
2021-12-23 03:34:01+00:00,105.0,9.11,102.0,12.44,12.49,47.59359,-54.27349
2021-12-23 03:44:01+00:00,97.0,10.49,96.0,15.64,12.49,47.59359,-54.27349
2021-12-23 03:54:01+00:00,108.0,8.1,133.0,12.8,12.49,47.59359,-54.27349
2021-12-23 04:04:01+00:00,102.0,9.06,110.0,11.63,12.49,47.59359,-54.27349
2021-12-23 04:14:00+00:00,103.0,7.97,117.0,11.52,12.49,47.59359,-54.27349
2021-12-23 04:24:00+00:00,112.0,9.97,120.0,12.55,12.49,47.59359,-54.27349
2021-12-23 04:34:00+00:00,121.0,12.11,109.0,15.57,12.49,47.59359,-54.27349
2021-12-23 04:44:00+00:00,94.0,9.2,96.0,17.77,12.49,47.59359,-54.27349
2021-12-23 04:54:00+00:00,86.0,9.06,114.0,11.06,12.49,47.59359,-54.27349
2021-12-23 05:04:00+00:00,84.0,9.33,76.0,14.39,12.49,47.59359,-54.27349
2021-12-23 05:14:01+00:00,98.0,7.13,101.0,11.7,12.49,47.59359,-54.27349
2021-12-23 05:24:01+00:00,91.0,7.24,91.0,17.35,12.49,47.59359,-54.27349
2021-12-23 05:34:01+00:00,94.0,8.09,95.0,13.01,12.49,47.59359,-54.27349
2021-12-23 05:44:01+00:00,92.0,6.81,97.0,10.8,12.49,47.59359,-54.27349
2021-12-23 05:54:01+00:00,97.0,5.87,93.0,9.61,12.49,47.59359,-54.27349
2021-12-23 06:04:01+00:00,84.0,6.8,62.0,10.76,12.49,47.59359,-54.27349
2021-12-23 06:14:01+00:00,91.0,7.92,79.0,12.48,12.41,47.59359,-54.27349
2021-12-23 06:24:01+00:00,125.0,4.92,122.0,8.14,12.41,47.59359,-54.27349
2021-12-23 06:34:01+00:00,315.0,0.01,130.0,0.0,12.41,47.59359,-54.27349
2021-12-23 06:44:01+00:00,315.0,0.01,136.0,0.0,12.41,47.59359,-54.27349
2021-12-23 06:54:01+00:00,105.0,7.77,116.0,15.65,12.41,47.59359,-54.27349
2021-12-23 07:04:01+00:00,120.0,3.83,123.0,4.91,12.41,47.59359,-54.27349
2021-12-23 07:14:00+00:00,315.0,0.01,83.0,0.0,12.41,47.59359,-54.27349
2021-12-23 07:24:00+00:00,102.0,7.51,116.0,10.37,12.41,47.59359,-54.27349
2021-12-23 07:34:00+00:00,89.0,9.01,92.0,17.4,12.41,47.59359,-54.27349
2021-12-23 07:44:00+00:00,84.0,8.69,81.0,17.28,12.41,47.59359,-54.27349
2021-12-23 07:54:00+00:00,94.0,10.11,99.0,18.25,12.41,47.59359,-54.27349
2021-12-23 08:04:00+00:00,88.0,8.9,85.0,17.82,12.41,47.59359,-54.27349
2021-12-23 08:14:01+00:00,97.0,10.65,116.0,20.08,12.41,47.59359,-54.27349
2021-12-23 08:24:01+00:00,93.0,9.6,91.0,17.19,12.41,47.59359,-54.27349
2021-12-23 08:34:01+00:00,93.0,9.64,92.0,16.82,12.41,47.59359,-54.27349
2021-12-23 08:44:01+00:00,95.0,12.23,103.0,19.55,12.41,47.59359,-54.27349
2021-12-23 08:54:01+00:00,94.0,12.75,102.0,18.96,12.41,47.59359,-54.27349
2021-12-23 09:04:01+00:00,108.0,9.59,111.0,18.82,12.41,47.59359,-54.27349
2021-12-23 09:14:01+00:00,112.0,10.79,118.0,20.52,12.33,47.59359,-54.27349
2021-12-23 09:24:01+00:00,111.0,10.72,112.0,18.64,12.33,47.59359,-54.27349
2021-12-23 09:34:01+00:00,123.0,12.73,113.0,18.98,12.33,47.59359,-54.27349
2021-12-23 09:44:01+00:00,122.0,15.84,122.0,21.16,12.33,47.59359,-54.27349
2021-12-23 09:54:01+00:00,125.0,18.9,127.0,22.11,12.33,47.59359,-54.27349
2021-12-23 10:04:01+00:00,130.0,16.9,129.0,21.88,12.33,47.59359,-54.27349
2021-12-23 10:14:01+00:00,127.0,17.71,128.0,21.58,12.33,47.59359,-54.27349
2021-12-23 10:24:01+00:00,131.0,16.43,123.0,20.79,12.33,47.59359,-54.27349
2021-12-23 10:34:01+00:00,138.0,15.85,130.0,21.01,12.33,47.59359,-54.27349
2021-12-23 10:44:01+00:00,142.0,14.96,152.0,18.09,12.33,47.59359,-54.27349
2021-12-23 10:54:01+00:00,147.0,13.5,148.0,16.91,12.33,47.59359,-54.27349
2021-12-23 11:04:01+00:00,145.0,16.81,140.0,20.74,12.33,47.59359,-54.27349
2021-12-23 11:14:00+00:00,145.0,18.69,138.0,25.34,12.33,47.59359,-54.27349
2021-12-23 11:24:00+00:00,150.0,17.61,146.0,20.63,12.33,47.59359,-54.27349
2021-12-23 11:34:00+00:00,156.0,15.56,155.0,20.28,12.33,47.59359,-54.27349
2021-12-23 11:44:00+00:00,157.0,20.26,165.0,23.55,12.33,47.59359,-54.27349
2021-12-23 11:54:00+00:00,162.0,15.96,161.0,18.58,12.33,47.59359,-54.27349
2021-12-23 12:04:00+00:00,159.0,14.23,161.0,17.25,12.33,47.59359,-54.27349
2021-12-23 12:14:00+00:00,160.0,16.09,159.0,19.25,12.33,47.59359,-54.27349
2021-12-23 12:24:00+00:00,157.0,14.48,160.0,16.1,12.33,47.59359,-54.27349
2021-12-23 12:34:00+00:00,156.0,14.84,156.0,16.61,12.33,47.59359,-54.27349
2021-12-23 12:44:00+00:00,160.0,13.54,158.0,15.16,12.33,47.59359,-54.27349
2021-12-23 12:54:00+00:00,180.0,14.13,174.0,17.02,12.33,47.59359,-54.27349
2021-12-23 13:04:00+00:00,193.0,14.76,200.0,16.82,12.33,47.59359,-54.27349
2021-12-23 13:14:01+00:00,194.0,15.3,194.0,17.25,12.41,47.59359,-54.27349
2021-12-23 13:24:01+00:00,192.0,16.33,194.0,19.24,12.41,47.59359,-54.27349
2021-12-23 13:34:01+00:00,197.0,14.99,206.0,18.8,12.41,47.59359,-54.27349
2021-12-23 13:44:01+00:00,214.0,14.28,227.0,18.04,12.41,47.59359,-54.27349
2021-12-23 13:54:01+00:00,216.0,16.23,217.0,20.52,12.41,47.59359,-54.27349
2021-12-23 14:04:01+00:00,212.0,15.2,220.0,18.98,12.41,47.59359,-54.27349
2021-12-23 14:14:00+00:00,212.0,13.21,221.0,18.31,12.73,47.59359,-54.27349
2021-12-23 14:24:00+00:00,218.0,15.0,221.0,18.12,12.73,47.59359,-54.27349
2021-12-23 14:34:00+00:00,222.0,14.83,225.0,18.29,12.73,47.59359,-54.27349
2021-12-23 14:44:00+00:00,231.0,16.16,229.0,18.52,12.73,47.59359,-54.27349
2021-12-23 14:54:00+00:00,231.0,15.14,234.0,18.32,12.73,47.59359,-54.27349
2021-12-23 15:04:00+00:00,235.0,15.54,235.0,17.78,12.73,47.59359,-54.27349
2021-12-23 16:14:01+00:00,229.0,11.78,232.0,16.44,12.73,47.59359,-54.27349
2021-12-23 16:24:01+00:00,230.0,12.32,231.0,15.37,12.73,47.59359,-54.27349
2021-12-23 16:34:01+00:00,227.0,12.33,230.0,15.45,12.73,47.59359,-54.27349
2021-12-23 16:44:01+00:00,227.0,12.6,234.0,15.79,12.73,47.59359,-54.27349
2021-12-23 16:54:01+00:00,231.0,12.01,239.0,14.93,12.73,47.59359,-54.27349
2021-12-23 17:04:01+00:00,229.0,10.64,238.0,14.07,12.73,47.59359,-54.27349
2021-12-23 17:14:00+00:00,222.0,10.11,229.0,14.31,12.97,47.59359,-54.27349
2021-12-23 17:24:00+00:00,228.0,9.9,235.0,13.17,12.97,47.59359,-54.27349
2021-12-23 17:34:00+00:00,246.0,13.94,249.0,15.8,12.97,47.59359,-54.27349
2021-12-23 17:44:00+00:00,250.0,13.46,243.0,15.71,12.97,47.59359,-54.27349
2021-12-23 17:54:00+00:00,248.0,14.88,250.0,17.67,12.97,47.59359,-54.27349
2021-12-23 18:04:00+00:00,246.0,13.99,239.0,16.18,12.97,47.59359,-54.27349
2021-12-23 18:14:00+00:00,249.0,14.59,256.0,17.31,12.97,47.59359,-54.27349
2021-12-23 18:24:00+00:00,248.0,15.28,241.0,18.77,12.97,47.59359,-54.27349
2021-12-23 18:34:00+00:00,255.0,14.66,262.0,16.23,12.97,47.59359,-54.27349
2021-12-23 18:44:00+00:00,246.0,13.94,247.0,15.22,12.97,47.59359,-54.27349
2021-12-23 18:54:00+00:00,244.0,13.68,240.0,15.14,12.97,47.59359,-54.27349
2021-12-23 19:04:00+00:00,248.0,16.4,250.0,19.46,12.97,47.59359,-54.27349
2021-12-23 19:14:01+00:00,249.0,16.96,250.0,19.51,12.65,47.59359,-54.27349
2021-12-23 19:24:01+00:00,247.0,17.34,251.0,19.56,12.65,47.59359,-54.27349
2021-12-23 19:34:01+00:00,252.0,16.45,250.0,19.7,12.65,47.59359,-54.27349
2021-12-23 19:44:01+00:00,249.0,17.75,253.0,21.28,12.65,47.59359,-54.27349
2021-12-23 19:54:01+00:00,243.0,18.51,244.0,20.19,12.65,47.59359,-54.27349
2021-12-23 20:04:01+00:00,248.0,15.3,250.0,19.3,12.65,47.59359,-54.27349
2021-12-23 20:14:01+00:00,244.0,16.92,246.0,19.77,12.49,47.59359,-54.27349
2021-12-23 20:24:01+00:00,243.0,17.07,241.0,20.14,12.49,47.59359,-54.27349
2021-12-23 20:34:01+00:00,245.0,14.39,254.0,18.84,12.49,47.59359,-54.27349
2021-12-23 20:44:01+00:00,243.0,16.83,235.0,20.76,12.49,47.59359,-54.27349
2021-12-23 20:54:01+00:00,247.0,16.88,245.0,19.48,12.49,47.59359,-54.27349
2021-12-23 21:04:01+00:00,243.0,17.04,236.0,20.1,12.49,47.59359,-54.27349
2021-12-23 21:14:01+00:00,244.0,16.56,243.0,19.36,12.41,47.59359,-54.27349
2021-12-23 21:24:01+00:00,248.0,17.09,246.0,19.68,12.41,47.59359,-54.27349
2021-12-23 21:34:01+00:00,245.0,17.82,249.0,21.39,12.41,47.59359,-54.27349
2021-12-23 21:44:01+00:00,250.0,15.1,254.0,19.46,12.41,47.59359,-54.27349
2021-12-23 21:54:01+00:00,251.0,18.18,258.0,23.64,12.41,47.59359,-54.27349
2021-12-23 22:04:01+00:00,254.0,13.95,254.0,18.96,12.41,47.59359,-54.27349
2021-12-23 22:14:01+00:00,252.0,16.9,253.0,20.75,12.41,47.59359,-54.27349
2021-12-23 22:24:01+00:00,263.0,18.74,262.0,23.24,12.41,47.59359,-54.27349
2021-12-23 22:34:01+00:00,254.0,16.79,254.0,18.79,12.41,47.59359,-54.27349
2021-12-23 22:44:01+00:00,253.0,16.6,261.0,18.86,12.41,47.59359,-54.27349
2021-12-23 22:54:01+00:00,255.0,18.72,255.0,25.26,12.41,47.59359,-54.27349
2021-12-23 23:04:01+00:00,249.0,17.54,250.0,20.75,12.41,47.59359,-54.27349
2021-12-23 23:14:01+00:00,252.0,17.48,249.0,19.57,12.41,47.59359,-54.27349
2021-12-23 23:24:01+00:00,253.0,17.1,254.0,23.35,12.41,47.59359,-54.27349
2021-12-23 23:34:01+00:00,252.0,17.61,246.0,19.92,12.41,47.59359,-54.27349
2021-12-23 23:44:01+00:00,264.0,17.55,267.0,21.94,12.41,47.59359,-54.27349
2021-12-23 23:54:01+00:00,254.0,17.38,252.0,19.2,12.41,47.59359,-54.27349
